STARLINK-5735, 55603

Orbit data source: Space-Track

STARLINK-5735, 55603 is a payload satellite owned by SpaceX/Seattle (US) in LEO that was launched on Sun, 12 Feb 2023 UTC via an FALCON 9 launch vehicle from the Air Force Eastern Test Range (AFETR). Payload-class satellites include a variety of spacecraft equipped with specific instruments for various scientific and technological missions. These include communications satellites like Starlink; space stations such as the ISS; scientific satellites like the Hubble; Earth observation satellites from companies like Planet Labs, Umbra, and HawkEye 360; GPS; miniature CubeSats for education and research; and military/defense satellites.

Loading next visibility...
Identifier
55603, 2023-020AL
Orbit
LEO
Country
Flag of USUS
Related business
Manufacturer
SpaceX/Seattle
Mission
Operational Commercial Communications
Bus & Motor
STARLINK, Unknown motor
Mass
305 kg wet, ~290 kg dry
Launch date (UTC)
2023-02-12 (3 years ago)
Launch vehicle
FALCON 9
Launch site
Air Force Eastern Test Range (AFETR)
Object type
Payload
Rocket body
Debris
Shape & HBR
Box + 1 Pan, 10.1 m
Radar Cross Section
13.562 m², Large (>1 m²)

Expand to show TLE details & history
Last TLE update: 15 hours ago

TLE from 15 hours ago
0 STARLINK-5735
1 55603U 23020AL  25340.54169188  .00001335  00000-0  11386-3 0  9996
2 55603  43.0023 138.1321 0001235 276.4924  83.5778 15.02536883155052
Epoch: 2025-12-06T13:00Z
TLE epoch observation values (Epoch: 2025-12-06T13:00:02.178Z)
Latitude
Longitude
-132.44492°
Altitude
558.759 km
Speed
7.584 km/s
True Right ascension
09h 12m 31s
True Declination
0° 00' 00"
Sunlit
Object was in partial shadow at epoch
Visualization orbit readout
Latitude
Unknown
Longitude
Unknown
Altitude
Unknown
Speed
Unknown
Apparent Right ascension
Unknown
Apparent Declination
Unknown
Sunlit
N/A
Visualization observer readout
Local Sidereal Time
02:07:46
Azimuth
Unknown
Elevation
Unknown
Doppler factor
Unknown
Orbital elements
Apogee altitude
561.857 km
Perigee altitude
560.143 km
Semi-major axis
6,939.137 km
Eccentricity
0.00012
Inclination
43.0023°
RAAN
138.1321°
Arg. of periapsis
276.4924°
True anomaly
83.59186°
Mean anomaly
83.5778°
Eccentric anomaly
83.58483°
Mean motion
3.75478 °/min
Orbital period
95.88 mins
BSTAR
0.00011386
Loading maneuver chart data...
Computing Atmospheric mass density...
Loading historical data...
Loading historical data...
Loading historical data...
Loading historical data...
Loading historical data...
Loading historical data...
Loading historical data...

Documentation

Showing up to 5 results
|